Location: Bambrugge
(50.9212°N, 3.9299°E)
Time: 01:23:03
(UTC+00:00)

Cosmos 1707 - Pass Details

Date: 23 May 2024
Orbit: 474 x 486 km, 82.5° (Epoch: 16 June)

Event Time Altitude Azimuth Distance (km) Brightness Sun altitude
Exits shadow 00:26:57 20° 256° (WSW) 1,176 4.3 -17.7°
Maximum altitude 00:28:18 25° 290° (WNW) 1,023 4.2 -17.7°
Drops below altitude 10° 00:31:23 10° 347° (NNW) 1,679 6.3 -17.6°
Sets 00:33:46 0° 1° (N) 2,562 7.8 -17.5°
